Regional Weather Roundup
Issued by NWS

Home | Current Version | Previous Version | Text Only | Print | Product List | Glossary Off
Versions: 1 2 3 4 5 6 7 8 9 10 11 12 13 14 15 16 17 18 19 20 21 22 23 24 25 26 27

000
ASUS45 KTFX 051410
RWRMT
MONTANA REGIONAL WEATHER ROUNDUP
NATIONAL WEATHER SERVICE GREAT FALLS MT
700 AM MST MON DEC 05 2016

NOTE: "FAIR" INDICATES FEW OR NO CLOUDS BELOW 12000 FEET WITH NO
SIGNIFICANT WEATHER AND/OR OBSTRUCTIONS TO VISIBILITY.

MTZ001>007-043-051500-
WEST OF THE DIVIDE

CITY           SKY/WX    TMP DP  RH WIND       PRES   REMARKS
KALISPELL      LGT SNOW  22  20  92 CALM      29.92R FOG
MISSOULA       CLOUDY    23  12  62 NW7       29.98R WCI  15
BUTTE          CLOUDY    15  -1  49 NW14      29.81R WCI   0
MULLAN PASS    CLEAR      8   4  83 NW8       29.81R WCI  -4
ANACONDA         N/A     18   3  53 SW14      29.86R WCI   4
DEER LODGE       N/A     18   9  68 CALM      29.90R
EUREKA           N/A     25  21  86 SE5       29.92R VSB 3/4
HAMILTON         N/A     25   3  39 E3        29.97R
LIBBY            N/A     19  16  86 CALM      29.96R
PLAINS           N/A     26  11  53 S8        30.00R WCI  18
RONAN            N/A     24  16  71 CALM      29.98R
$$

MTZ008-052>055-051500-
SOUTHWEST MONTANA

CITY           SKY/WX    TMP DP  RH WIND       PRES   REMARKS
BOZEMAN        CLOUDY    20  14  77 N8        29.84R WCI  10
DILLON         PTCLDY    13  -1  54 S9        29.85R WCI   1
W YELLOWSTONE  CLOUDY     9  -2  61 CALM      29.75R
ENNIS          CLOUDY    18  -4  38 W8G15     29.85R WCI   7
THREE FORKS      N/A     19 -32   9 CALM      29.86R
TWIN BRIDGES     N/A     20  -6  31 W9        29.85R WCI   9
$$

MTZ009-010-012-014-046-048-049-054-051500-
EAST SLOPES AND CENTRAL MONTANA

CITY           SKY/WX    TMP DP  RH WIND       PRES   REMARKS
CUT BANK       CLOUDY     8   3  80 N14       29.92R WCI  -8
GREAT FALLS    CLOUDY    16  11  80 NW9       29.92R WCI   4
MALMSTROM AFB  CLOUDY    17  12  82 NW12      29.94R WCI   4
HELENA         LGT SNOW  19  15  84 W9        29.89R FOG     WCI   8
AUGUSTA        LGT SNOW  13  11  90 N12       29.88R WCI   0
BOWMANS CRNR   FLURRIES  12  10  92 NW7       29.86R WCI   1
CHOTEAU          N/A     14  12  92 N10       29.93R WCI   1
CONRAD           N/A     12   8  84 W8        29.95R WCI   0
FAIRFIELD      LGT SNOW  14  10  83 N12       29.91R WCI   1
POWER          FLURRIES  12   9  88 N12       29.90R WCI  -2
RAYNESFORD     LGT SNOW  15  13  90 NW14      29.89R WCI   0
ULM            LGT SNOW  18  15  89 N16       29.93R WCI   3
$$

MTZ011-013-016-021-045-047-050-051-051500-
NORTH CENTRAL MONTANA

CITY           SKY/WX    TMP DP  RH WIND       PRES   REMARKS
HAVRE          CLOUDY    12   6  77 W16       29.94R WCI  -5
LEWISTOWN      FLURRIES  15  12  88 W21       29.80S WCI  -2
N BAR RANCH    FLURRIES  14   9  79 NW22G36   29.73R WCI  -4
CHINOOK          N/A     16   9  73 W20G28    29.91R WCI  -1
DENTON         FLURRIES  14  11  85 NW17G29   29.83R WCI  -2
GEYSER         MOCLDY    15   6  65 NW18G25   29.85R WCI  -1
GRASS RANGE    FLURRIES  17  11  79 W15G33    29.75R WCI   2
JUDITH GAP     MOCLDY    10   7  87 N16       29.77R WCI  -7
ROY            MOCLDY    15  11  83 MISG      29.79R
STANFORD       SNOWSHWR  13   9  85 NW30      29.81R WCI  -9
WINIFRED       FLURRIES  14  11  87 MISG      29.82R
$$

MTZ017>020-022>027-061-062-051500-
NORTHEAST MONTANA

CITY           SKY/WX    TMP DP  RH WIND       PRES   REMARKS
GLASGOW        LGT SNOW  20  18  92 NW24      29.75R FOG     WCI   3
JORDAN           N/A     22  15  75 NW17      29.75R WCI   8
SIDNEY         CLOUDY    25  20  81 NW28G33   29.59R WCI   9
WOLF POINT     CLOUDY    24  17  74 NW18G30   29.71R WCI  10
PLENTYWOOD       N/A     21  19  93 NW24G30   29.58R VSB 1/2 WCI   4
POPLAR           N/A     23  18  80 NW22G28   29.66R WCI   8
SCOBEY           N/A     20  10  65 NW18      29.65R WCI   5
$$

MTZ028>42-056>058-051500-
SOUTHCENTRAL AND SOUTHEAST MONTANA

CITY           SKY/WX    TMP DP  RH WIND       PRES   REMARKS
BAKER          CLOUDY    23  18  81 NW20G32   29.63R WCI   8
BILLINGS       CLOUDY    21  12  68 NW14      29.79R WCI   8
LIVINGSTON     LGT SNOW  18  13  80 NW15      29.81R VSB 1   WCI   4
MILES CITY     CLOUDY    25  16  68 NW22G30   29.73R WCI  10
BIG TIMBER     CLOUDY    21  12  68 W21       29.77R WCI   6
EKALAKA          N/A     22  16  78 W21       29.64R WCI   7
FORSYTH          N/A     25  18  74 NW13G22   29.77R WCI  13
HARLOWTON      MOCLDY    15   7  70 N21       29.77R WCI  -2
LAUREL           N/A     22   3  43 NW16      29.78R WCI   8
ROUNDUP          N/A     20   7  57 NW20      29.70R WCI   5
$$

REGIONAL REPORTS...DAKOTAS

CITY           SKY/WX    TMP DP  RH WIND       PRES   REMARKS
WILLISTON      CLOUDY    23  19  85 NW13      29.56R WCI  11
MINOT          CLOUDY    20  17  88 E6        29.51S WCI  12
DICKINSON      CLOUDY    27  23  85 W31       29.51R FOG     WCI  10
BEACH          CLOUDY    23  23 100 NW24G31   29.64R WCI   7
CROSBY         FLURRIES  18  18 100 NW10      29.56R WCI   6
TIOGA          LGT SNOW  25  25 100 W18G24    29.51R WCI  11
WATFORD CITY   CLOUDY    28  27  93 W16G22    29.53F WCI  17
BISMARCK       CLOUDY    20  18  92 CALM      29.56R
GRAND FORKS    CLOUDY    27  24  89 E7        29.69F FOG     WCI  19
FARGO          CLEAR     21  18  88 E7        29.65F WCI  12
BUFFALO SD       N/A     30  26  85 NW30G43   29.49R WCI  15
RAPID CITY     CLEAR     32  27  81 NW28G37   29.50R WCI  18
$$

REGIONAL REPORTS...WYOMING/IDAHO/WASHINGTON

CITY           SKY/WX    TMP DP  RH WIND       PRES   REMARKS
GILLETTE       LGT SNOW  24  23  96 N25       29.60R VSB 1   WCI   8
SHERIDAN       LGT SNOW  22  19  89 NW22      29.73R FOG     WCI   6
BUFFALO WY     HVY SNOW  21  16  81 NW33G43   29.63R VSB 1/4 WCI   2
YELLOWSTONE LA   N/A      4  -2  76 W7        29.68R WCI  -8
IDAHO FALLS    CLOUDY    21  10  62 SW3       29.93R
SALMON         CLOUDY    18   7  62 S12       29.97R WCI   5
BOISE          CLEAR     21  15  78 CALM      30.12R
SPOKANE        CLEAR     22  17  81 SW10      30.04R WCI  11
$$

REGIONAL REPORTS...ALBERTA

CITY           SKY/WX    TMP DP  RH WIND       PRES   REMARKS
EDMONTON       CLOUDY     1  -6  71 NW10      30.07R WCI -14
CALGARY        MOCLDY     3  -4  72 N8        29.96R WCI -10
LETHBRIDGE     FLURRIES   9   1  72 N15G21    30.01R WCI  -8
MEDICINE HAT   MOCLDY     5  -2  72 NW9G18    30.01R WCI  -9
WATERTON GATE    N/A      5   1  85 NE9         N/A  WCI  -9
CARDSTON         N/A      7   3  85 N6          N/A  WCI  -3
MILK RIVER       N/A      1   0  92 NW6         N/A  WCI -10
$$

REGIONAL REPORTS...SASKATCHEWAN

CITY           SKY/WX    TMP DP  RH WIND       PRES   REMARKS
SWIFT CURRENT  LGT SNOW   7   3  85 NW29G35   29.78R WCI -16
REGINA         CLOUDY    18  16  93 N16G23    29.67R WCI   3
SASKATOON      FLURRIES  14   9  79 NW15      29.81R WCI  -1
CYPRESS HILLS    N/A     -2  -8  78 NW20G41     N/A  WCI -25
VAL MARIE        N/A     12   7  79 NW23G30     N/A  WCI  -7
ROCKGLEN         N/A     14  12  92 NW23G32     N/A  WCI  -5
$$




USA.gov is the U.S. government's official web portal to all federal, state and local government web resources and services.